Weather in Brodki

Russia / Lipetsk Oblast     52°49′28″N   38°27′38″E
temp.,
°C
wind,
m/s
gust,
m/s
humid.,
%
clouds,
%
prec.,
mm/h
press.,
hPa
HPBL,
m
28 june, tue
tue2800:00+20wnw35914 0.9 101873
03:00+20nnw35930 1.6 101895
06:00+20n48892 0.0 1018181
09:00+24ne46700 0.0 1017393
12:00+26nne56656 0.6 10181332
15:00+26nne66649 0.9 10181266
18:00+24nne687114 0.6 1018777
21:00+18ene38830 0.6 1020176
29 june, wed
wed2900:00+15e3679100 0.0 1021135
03:00+13e33800 0.0 102247
06:00+14e248170 0.0 1022131
09:00+18ese3463100 0.0 1022600
12:00+20e2355100 0.0 10221390
15:00+21ene2251100 0.0 10211756
18:00+20ne2264100 0.0 1020879
21:00+15ene3375100 0.0 102053
30 june, thu
thu3000:00+13ene22730 0.0 102114
03:00+12ne11770 0.0 102110
06:00+14nne22775 0.0 102168
09:00+18n22625 0.0 1020516
12:00+21n34515 0.0 10201622
15:00+22n455099 0.0 10191959
18:00+21n366355 0.0 1019767
21:00+16nnw33745 0.0 101935
1 july, fri
fri100:00+15nw3572100 0.0 101972
03:00+13nnw48750 0.0 1019126
06:00+14n48800 0.0 1020171
09:00+19n46670 0.0 1020568
12:00+22ne56500 0.0 10201745
15:00+23nne56485 0.0 10202007
18:00+22ne35600 0.0 1020853
21:00+17ne11730 0.0 102111
2 july, sat
sat200:00+15wsw22740 0.0 102111
03:00+14w33775 0.0 102127
06:00+15wnw358349 0.0 1022143
09:00+21nw347074 0.0 1021499
12:00+24nw336014 0.0 10201121
15:00+26nw345399 0.0 10191782
18:00+25nw356393 0.0 1019567
21:00+20nw3578100 0.1 101887